Regional Weather Roundup
Issued by NWS

Home | Current Version | Previous Version | Text Only | Print | Product List | Glossary On
Versions: 1 2 3 4 5 6 7 8 9 10 11 12 13 14 15 16 17 18 19 20 21 22 23 24 25 26 27 28 29 30 31 32 33 34 35 36 37 38 39 40 41 42 43 44 45 46 47 48 49 50
000
ASUS43 KDMX 250301
RWRIA

WEATHER ROUNDUP FOR IOWA
NATIONAL WEATHER SERVICE DES MOINES IA
1000 PM CDT SAT JUN 24 2017

NOTE: "FAIR" INDICATES FEW OR NO CLOUDS BELOW 12,000 FEET WITH NO
SIGNIFICANT WEATHER AND/OR OBSTRUCTIONS TO VISIBILITY.

* - THESE STATIONS ARE NOT NWS STATIONS...THUS NOT UNDER NWS
QUALITY CONTROL.  THEY ALSO DO NOT REPORT WEATHER SUCH
AS PRECIPITATION OR FOG.

IAZ001>003-012>014-020>022-031>034-043>046-250400-
   NORTHWEST IOWA

CITY           SKY/WX    TMP DP  RH WIND       PRES   REMARKS
CARROLL *      CLEAR     59  41  51 NW5       30.15R
CHEROKEE *     CLEAR     59  43  55 NW3       30.16R
DENISON *      CLEAR     61  39  44 N6        30.17R
LE MARS *      CLEAR     61  41  48 NW7       30.17R
ORANGE CITY *  CLEAR     61  43  51 N7        30.17R
SHELDON *      CLEAR     57  41  54 NW8       30.15R
SIOUX CITY     CLEAR     63  41  44 N10       30.16R
SPENCER        CLEAR     54  43  66 NW7       30.15R
STORM LAKE *   CLEAR     59  43  55 NW7       30.16R
$$

IAZ055>058-069>071-079>083-090>094-250400-
   SOUTHWEST IOWA

CITY           SKY/WX    TMP DP  RH WIND       PRES   REMARKS
ATLANTIC *     CLEAR     61  46  59 NW5       30.15R
AUDUBON *      CLEAR     61  45  55 CALM      30.16R
CLARINDA *       N/A     63  52  67 CALM      30.17R
COUNCIL BLFS * CLEAR     66  43  42 NW7       30.16R
CRESTON *      CLEAR     63  45  51 NW6       30.16R
HARLAN  *      CLEAR     57  46  67 NW5       30.18R
LAMONI         CLEAR     64  50  60 W5        30.14R
RED OAK *      CLEAR     59  54  82 CALM      30.15R
SHENANDOAH *   CLEAR     63  52  67 SW3       30.16R
$$

IAZ047>049-059>061-072>074-084-250400-
   CENTRAL IOWA

CITY           SKY/WX    TMP DP  RH WIND       PRES   REMARKS
AMES           CLEAR     62  46  55 N6        30.13R
ANKENY *       CLEAR     64  45  48 N6G12     30.14R
BOONE *        CLEAR     59  46  63 N6        30.13R
CHARITON *     PTCLDY    66  45  45 W6        30.12R
DES MOINES     CLEAR     69  42  37 N9G18     30.12R
GRINNELL*      CLEAR     60  44  56 NW5       30.13R
KNOXVILLE *    CLEAR     66  45  45 N8        30.11R
MARSHALLTOWN   CLEAR     58  45  62 NW7       30.11R
NEWTON *       CLEAR     63  45  51 N8        30.12R
PELLA *        CLEAR     63  43  48 N5        30.13R
PERRY *          N/A     62  41  46 N6        30.13R
$$

IAZ004>006-015-016-023>025-035-036-250400-
   NORTH CENTRAL IOWA

CITY           SKY/WX    TMP DP  RH WIND       PRES   REMARKS
ALGONA *       CLEAR     59  43  55 NW7       30.13R
CLARION *        N/A     55  45  67 NW6       30.13R
ESTHERVILLE    CLEAR     54  43  66 NW7       30.13R
FORT DODGE *   CLEAR     61  39  44 N3        30.14R
MASON CITY     CLEAR     55  40  56 NW9       30.13R
FOREST CITY *    N/A     55  34  44 NW6       30.12R
WEBSTER CITY * CLEAR     57  43  58 NW7       30.11R
IOWA FALLS *     N/A     56  46  71 NW6       30.13R
$$

IAZ007>011-017>019-026>030-037>042-050>054-066-250400-
   NORTHEAST IOWA

CITY           SKY/WX    TMP DP  RH WIND       PRES   REMARKS
CEDAR RAPIDS   CLEAR     57  49  74 NW8       30.09R
CHARLES CITY * CLEAR     55  45  67 NW6       30.11R
CLINTON *      MOCLDY    59  54  83 N7        30.10R
DECORAH *      CLEAR     55  50  82 CALM      30.08R
DUBUQUE        CLEAR     54  51  90 N6        30.09R
MONTICELLO *   CLEAR     59  52  77 CALM      30.09R
OELWEIN *      CLEAR     57  52  82 CALM      30.11R
WATERLOO       CLEAR     58  42  55 W6        30.09R
$$

IAZ064-065-067-068-078-250400-
   EAST CENTRAL IOWA

CITY           SKY/WX    TMP DP  RH WIND       PRES   REMARKS
DAVENPORT      PTCLDY    61  49  64 N8        30.09R
IOWA CITY      CLEAR     69  44  40 NW8       30.11R
MT. PLEASANT * CLEAR     62  45  54 SW5       30.10R
MUSCATINE *    PTCLDY    66  46  48 W7        30.08R
QUAD CITIES    MOCLDY    63  54  72 W5        30.07R
$$

IAZ062-063-075>077-085>089-095>099-250400-
   SOUTHEAST IOWA

CITY           SKY/WX    TMP DP  RH WIND       PRES   REMARKS
BURLINGTON     CLEAR     64  48  56 SW6       30.08R
FAIRFIELD *    CLEAR     64  45  48 W6        30.10R
FORT MADISON * CLEAR     66  46  48 SW7       30.10S
KEOKUK *       CLEAR     63  48  59 SW7       30.10R
OSKALOOSA *      N/A     60  46  59 NW6       30.12R
OTTUMWA        CLEAR     62  47  57 W5        30.10R
WASHINGTON *   CLEAR     64  46  52 NW8       30.11R
$$

ABBREVIATIONS USED IN REMARKS
   TC - TEMPERATURES IN CELSIUS
  WCI - WIND CHILL INDEX
   HX - HEAT INDEX
  VSB - VISIBILITY
$$





USA.gov is the U.S. government's official web portal to all federal, state and local government web resources and services.